User: anonymous   Login
Location: Asheville, NC
(35.6000°N, 82.5500°W)
Time: 12:37:36
(UTC-05:00)
Language:

STARS - Orbit

View from above orbital plane
View from above orbital plane
View from above satellite
View from above satellite

Ground track
Ground track

The orbit data is extracted from the following two-line orbital elements,

1 33498U 09002G   19052.17167046  .00000164  00000-0  29896-4 0  9996
2 33498  98.3182 257.4457 0010951 178.6787 181.4453 14.78934631542636
Epoch (UTC): 21 February 2019 04:07:12
Eccentricity: 0.0010951
inclination: 98.3182°
perigee height: 625 km
apogee height: 640 km
right ascension of ascending node: 257.4457°
argument of perigee: 178.6787°
revolutions per day: 14.78934631
mean anomaly at epoch: 181.4453°
orbit number at epoch: 54263

The dashed part of the orbit path shows where the satellite is in the earth's shadow,  

DLR